Weather History for Beaufort, NC

Change the Weather History Date:

Tuesday, March 27, 2012

  Actual Average Record
Temperature  
Mean Temperature 54 °F -  
Max Temperature 61 °F 65 °F 77 °F (1989)
Min Temperature 46 °F 44 °F 25 °F (1955)
Degree Days  
Heating Degree Days 10    
Growing Degree Days 4 (Base 50)    
Moisture  
Dew Point 34 °F    
Average Humidity 50    
Maximum Humidity 73    
Minimum Humidity 31    
Precipitation  
Precipitation 0.00 in - - ()
Sea Level Pressure  
Sea Level Pressure 30.26 in    
Wind  
Wind Speed 9 mph (NE)    
Max Wind Speed 20 mph    
Max Gust Speed 28 mph    
Visibility 10 miles    
Events      
Averages and records for this station are not official NWS values.
T = Trace of Precipitation, MM = Missing Value Source: NWS Daily Summary

Daily Weather History Graph

Daily Weather History Graph

Search for Another Location

Airport:

Trip Planner

Search our weather history database for the weather conditions in past years. The results will help you decide how hot, cold, wet, or windy it might be!

Date:

Astronomy

Mar. 27, 2012 Rise Set
Actual Time 6:59 AM EDT 7:24 PM EDT
Civil Twilight 6:34 AM EDT 7:49 PM EDT
Nautical Twilight 6:05 AM EDT 8:19 PM EDT
Astronomical Twilight 5:34 AM EDT 8:49 PM EDT
Moon 9:40 AM EDT (3/27) No Moon Set
Length of Visible Light 13h 14m
Length of Day
12h 24m
Waxing Crescent, 22% of the Moon is Illuminated
Mar 27
Waxing Crescent
Mar 30
First Quarter
Apr 6
Full
Apr 13
Last Quarter
Apr 21
New

Hourly Weather History & Observations

Time (EDT) Temp. Dew Point Humidity Pressure Visibility Wind Dir Wind Speed Gust Speed Precip Events Conditions
12:56 AM 55.9 °F 39.9 °F 55% 30.10 in 10.0 mi NE 6.9 mph - N/A   Clear
1:56 AM 54.0 °F 42.1 °F 64% 30.13 in 10.0 mi NNE 8.1 mph - N/A   Clear
2:56 AM 53.1 °F 39.0 °F 59% 30.15 in 10.0 mi NNE 8.1 mph - N/A   Clear
3:56 AM 51.1 °F 37.9 °F 61% 30.17 in 10.0 mi NNE 8.1 mph - N/A   Clear
4:56 AM 48.9 °F 35.1 °F 59% 30.18 in 10.0 mi NNE 9.2 mph - N/A   Clear
5:56 AM 48.9 °F 32.0 °F 52% 30.21 in 10.0 mi NNE 10.4 mph - N/A   Clear
6:56 AM 48.0 °F 32.0 °F 54% 30.24 in 10.0 mi NNE 10.4 mph - N/A   Clear
7:56 AM 48.9 °F 30.9 °F 50% 30.27 in 10.0 mi NNE 12.7 mph - N/A   Clear
8:56 AM 51.1 °F 30.9 °F 46% 30.29 in 10.0 mi NNE 19.6 mph 27.6 mph N/A   Clear
9:56 AM 52.0 °F 32.0 °F 47% 30.31 in 10.0 mi North 16.1 mph 23.0 mph N/A   Clear
10:56 AM 53.1 °F 30.9 °F 43% 30.32 in 10.0 mi NNE 13.8 mph 23.0 mph N/A   Clear
11:56 AM 54.0 °F 32.0 °F 43% 30.34 in 10.0 mi North 12.7 mph 20.7 mph N/A   Clear
12:56 PM 55.9 °F 30.9 °F 39% 30.32 in 10.0 mi NNE 8.1 mph - N/A   Clear
1:56 PM 57.9 °F 33.1 °F 39% 30.31 in 10.0 mi NNE 9.2 mph - N/A   Clear
2:56 PM 60.1 °F 32.0 °F 35% 30.30 in 10.0 mi North 6.9 mph - N/A   Clear
3:56 PM 61.0 °F 30.0 °F 31% 30.29 in 10.0 mi NE 8.1 mph - N/A   Clear
4:56 PM 59.0 °F 30.9 °F 35% 30.28 in 10.0 mi ENE 9.2 mph - N/A   Clear
5:56 PM 57.0 °F 32.0 °F 39% 30.27 in 10.0 mi East 8.1 mph - N/A   Clear
6:56 PM 55.0 °F 30.0 °F 38% 30.28 in 10.0 mi ENE 8.1 mph - N/A   Clear
7:56 PM 52.0 °F 37.0 °F 57% 30.30 in 10.0 mi East 4.6 mph - N/A   Clear
8:56 PM 51.1 °F 39.0 °F 63% 30.32 in 10.0 mi East 5.8 mph - N/A   Clear
9:56 PM 51.1 °F 39.0 °F 63% 30.33 in 10.0 mi East 3.5 mph - N/A   Clear
10:56 PM 51.1 °F 39.0 °F 63% 30.32 in 10.0 mi Calm Calm - N/A   Clear
11:56 PM 46.0 °F 37.9 °F 73% 30.32 in 10.0 mi Calm Calm - N/A   Clear